Zurück zum Katalog

STARLINK-36492

AktivKommunikationVLEO
NORAD 67332·PAYLOAD·🇺🇸 United States

Gestartet Jan 4, 2026 von Cape Canaveral Space Force Station

Loading…

Nächste Überflüge (nächste 24 Stunden)

TLE

AktuellSource: CelesTrak SupGP

Epoche: Sep 15, 2026, 04:02 UTC

1 67332C 26002AD  26258.16854167  .00049992  00000+0  18100-2 0  2584
2 67332  43.0010 335.5581 0001220 262.9600  71.8884 15.27566159    15

Verfolge STARLINK-36492 in Echtzeit mit AllMySat

Download on the App Store